This is the latest recevied weather packets stored in our database for station/object KB9HUO. If no packets are shown the sender has not sent any weather packets the latest 10 day(s).
| Time | Temp. | Humidity | Pressure | Rain* | Wind** | Luminosity | Snow |
|---|---|---|---|---|---|---|---|
| 1778218334 | 6.67° C | 82% | 1016.5 hPa | 0 mm | - | 0 W/m² | - |
| 1778218031 | 6.67° C | 80% | 1016.5 hPa | 0 mm | - | 0 W/m² | - |
| 1778217728 | 6.67° C | 80% | 1016.6 hPa | 0 mm | - | 0 W/m² | - |
| 1778217424 | 6.67° C | 80% | 1016.6 hPa | 0 mm | - | 0 W/m² | - |
| 1778217120 | 6.67° C | 81% | 1016.8 hPa | 0 mm | - | 0 W/m² | - |
| 1778216816 | 7.22° C | 81% | 1016.5 hPa | 0 mm | - | 0 W/m² | - |
| 1778216513 | 7.22° C | 81% | 1016.5 hPa | 0 mm | - | 0 W/m² | - |
| 1778216209 | 7.22° C | 81% | 1016.4 hPa | 0 mm | - | 0 W/m² | - |
| 1778215907 | 7.78° C | 81% | 1016.5 hPa | 0 mm | - | 0 W/m² | - |
| 1778215604 | 7.78° C | 80% | 1016.4 hPa | 0 mm | - | 0 W/m² | - |
| 1778215300 | 7.22° C | 82% | 1016.3 hPa | 0 mm | - | 0 W/m² | - |
| 1778214996 | 7.78° C | 81% | 1016.3 hPa | 0 mm | - | 0 W/m² | - |
| 1778214695 | 7.78° C | 80% | 1016.3 hPa | 0 mm | - | 0 W/m² | - |
| 1778214391 | 7.78° C | 78% | 1016.4 hPa | 0 mm | - | 0 W/m² | - |
| 1778214089 | 7.78° C | 79% | 1016.2 hPa | 0 mm | - | 0 W/m² | - |
| 1778213784 | 7.78° C | 80% | 1016.5 hPa | 0 mm | - | 0 W/m² | - |
| 1778213481 | 7.78° C | 78% | 1016.6 hPa | 0 mm | - | 0 W/m² | - |
| 1778213179 | 7.78° C | 79% | 1016.3 hPa | 0 mm | - | 0 W/m² | - |
| 1778212876 | 7.78° C | 82% | 1016.6 hPa | 0 mm | - | 0 W/m² | - |
| 1778212573 | 7.78° C | 82% | 1016.4 hPa | 0 mm | - | 0 W/m² | - |
| 1778212270 | 7.78° C | 80% | 1016.5 hPa | 0 mm | - | 0 W/m² | - |
| 1778211966 | 7.78° C | 79% | 1016.5 hPa | 0 mm | - | 0 W/m² | - |
| 1778211664 | 7.78° C | 78% | 1016.5 hPa | 0 mm | - | 0 W/m² | - |
| 1778211361 | 7.78° C | 80% | 1016.4 hPa | 0 mm | - | 0 W/m² | - |
| 1778211059 | 7.78° C | 79% | 1016.6 hPa | 0 mm | - | 0 W/m² | - |
* Rain latest hour (hover to see other rain measurements)
** Current wind speed in m/s (hover to see current wind gust speed)